Location: ??
(35.5052°N, 139.7262°E)
Time: 16:46:53
(UTC+00:00)

Alouette 2 Rocket - Pass Details

Date: 20 June 2021
Orbit: 501 x 2650 km, 79.8° (Epoch: 29 July)

Event Time Altitude Azimuth Distance (km) Brightness Sun altitude
Rises 17:19:56 0° 353° (N) 2,612 7.5 -20.3°
Reaches altitude 10° 17:21:52 10° 356° (N) 1,769 6.5 -20.1°
Maximum altitude 17:25:33 67° 80° (E) 654 3.8 -19.6°
Enters shadow 17:29:16 16° 161° (SSE) 1,842 5.7 -19.1°
